Location: Misciano
(43.5000°N, 11.9500°E)
Time: 04:41:13
(UTC+00:00)

Cosmos 1864 Rocket - Pass Details

Date: 13 August 2020
Orbit: 952 x 997 km, 82.9° (Epoch: 23 September)

Event Time Altitude Azimuth Distance (km) Brightness Sun altitude
Exits shadow 21:27:50 70° 127° (SE) 1,031 4.3 -27.0°
Maximum altitude 21:28:16 73° 94° (E) 1,016 4.4 -27.1°
Drops below altitude 10° 21:34:31 10° 12° (NNE) 2,740 7.4 -27.6°
Sets 21:37:03 0° 10° (N) 3,699 8.3 -27.8°
